Terug naar catalogus

STARLINK-37333

ActiefCommunicatieVLEO
NORAD 69174·PAYLOAD·🇺🇸 United States

Gelanceerd May 21, 2026 vanaf Cape Canaveral Space Force Station

Loading…

Volgende Passages (komende 24 uur)

TLE

VersSource: CelesTrak SupGP

Epoch: Sep 14, 2026, 22:42 UTC

1 69174C 26111AC  26257.94631944  .00022898  00000+0  67669-3 0  2572
2 69174  53.1567  91.4781 0001322  85.6514 108.5953 15.34371417    11

Volg STARLINK-37333 in realtime met AllMySat

Download on the App Store